Lid_Strength_Index
6 6 6 6 6 6 6 5 5 4 3 2 1 1 1 1 1 2 3 3 3 2 2 2 2 2 2 2 2 2 2 3 5 10 9 10 11 12 12 11 11 12 12
6 6 6 6 6 6 5 5 5 5 4 3 2 1 1 1 2 3 3 2 4 4 5 5 6 6 8 8 7 9 7 8 9 11 11 12 13 12 13 12 12 11 9
6 6 6 6 7 7 6 5 5 4 3 2 2 2 2 2 2 4 4 6 7 7 7 7 8 9 10 9 9 10 10 10 11 12 14 13 13 13 13 13 13 13 10
6 7 7 7 7 7 6 5 4 4 4 2 2 2 1 2 4 5 7 8 8 8 8 7 8 8 9 9 9 9 10 11 12 13 14 14 14 14 14 15 14 14 14
7 7 8 7 7 6 6 5 4 4 3 2 2 3 2 4 4 6 7 8 8 7 7 6 6 6 6 7 8 9 10 12 12 14 15 15 15 15 15 15 16 15 13
7 7 7 7 6 5 5 5 5 4 4 3 4 2 4 5 8 7 7 8 8 8 8 7 7 6 7 7 7 8 9 12 14 15 15 15 16 16 16 16 15 15 14
7 7 7 6 6 5 6 6 5 6 5 3 3 5 6 7 8 8 7 8 9 9 9 9 9 9 9 9 8 9 10 11 12 14 15 16 16 16 16 14 13 14 14
8 7 6 6 7 6 7 8 7 5 3 4 5 5 6 7 8 8 8 9 9 9 9 10 10 10 10 11 11 12 12 13 14 13 14 15 15 15 12 13 12 13 13
8 8 8 8 9 8 8 8 5 4 4 5 6 6 7 7 8 10 9 9 10 10 10 10 10 11 11 12 12 13 14 13 11 11 12 13 12 10 9 11 13 14 14
10 10 9 8 8 8 7 5 5 5 6 7 7 7 7 8 9 10 9 10 10 11 10 10 9 11 12 12 14 14 14 13 12 11 11 10 9 9 8 11 13 14 15
10 9 10 9 8 7 6 5 6 7 8 8 8 8 8 9 9 10 9 9 11 10 9 9 10 11 12 13 13 13 11 10 10 11 10 10 10 10 11 11 11 13 14
10 11 10 8 7 6 5 6 8 8 8 9 10 10 10 10 9 10 10 10 9 10 10 10 11 12 13 12 13 13 12 11 11 11 11 12 12 11 11 11 11 11 10
11 10 9 8 6 5 6 8 9 8 9 10 10 11 11 9 10 10 10 10 10 11 10 10 11 12 12 12 12 11 11 12 12 12 13 13 12 12 11 11 10 9 8
10 10 8 7 7 7 7 8 9 9 10 10 11 11 10 10 10 9 9 9 9 10 10 10 11 12 12 12 11 10 10 12 13 13 13 13 12 12 12 12 9 9 9
9 8 9 10 10 11 10 9 10 9 9 10 10 10 11 12 11 11 10 11 11 12 12 12 13 13 13 11 12 12 12 12 12 13 13 13 12 12 12 12 9 9 9
10 10 10 10 10 11 11 12 11 11 11 11 10 10 11 11 11 11 11 12 12 12 13 14 14 14 13 12 12 12 12 12 13 13 14 14 14 13 13 12 9 8 8
11 11 10 10 11 12 12 12 13 12 10 11 11 11 11 12 11 12 13 13 13 13 14 13 13 13 13 13 13 13 14 14 13 13 14 14 13 13 13 13 11 7 7
10 10 10 11 11 11 11 12 11 12 12 12 11 11 12 12 12 13 12 12 13 12 12 13 13 12 13 13 14 14 14 14 14 14 14 14 14 13 13 13 10 8 8
10 10 10 10 10 11 11 11 11 11 11 11 11 11 12 12 13 13 12 13 12 12 12 13 13 13 14 14 14 14 14 15 15 15 15 14 14 14 13 12 10 9 8
10 11 11 12 12 11 11 11 11 11 11 11 12 13 12 13 14 14 12 12 13 13 13 14 14 14 14 15 15 15 15 15 15 15 15 15 14 13 13 12 11 9 8
11 11 12 11 11 10 10 10 11 11 11 13 14 14 15 14 13 13 13 14 14 14 15 15 15 16 16 16 16 16 16 16 15 15 14 14 13 13 13 12 12 10 8
11 11 11 11 11 11 11 11 11 12 13 14 14 14 14 13 13 14 15 15 16 16 15 16 16 17 17 17 16 16 16 15 15 14 14 13 13 13 12 12 12 11 10
11 11 11 11 11 12 12 12 13 14 14 13 12 13 14 14 15 15 16 16 16 16 16 16 16 17 17 16 16 15 15 15 15 14 13 13 13 13 13 12 12 12 12
11 11 12 12 13 13 14 14 13 13 12 13 13 14 14 15 15 16 16 16 16 16 16 17 17 16 16 15 15 14 14 14 13 13 12 12 12 12 12 12 12 12 12
12 12 12 13 13 12 12 12 12 12 13 13 13 14 15 15 16 16 16 16 16 16 16 16 16 15 14 14 13 13 12 11 12 12 12 12 12 12 12 12 12 12 12
11 11 11 11 12 12 12 12 13 13 13 13 14 14 15 15 15 15 16 16 16 16 16 15 15 14 14 13 13 12 12 11 12 11 12 11 12 12 12 12 12 12 12